Overview Statistics Trail Chart Weather Telemetry Raw packets
 

This is the latest recevied weather packets stored in our database for station/object SV9TNF-55. If no packets are shown the sender has not sent any weather packets the latest 10 day(s).

<< 16 17 18 19 20 21 22 >>
Time Temp. Humidity Pressure Rain* Wind** Luminosity Snow
1788407867 22.22° C 35% 1013.4 hPa 0 mm 1.79 m/s, 292° - -
1788407268 22.22° C 34% 1013.4 hPa 0 mm 2.68 m/s, 292° - -
1788406667 22.22° C 35% 1013.5 hPa 0 mm 0.89 m/s, 292° - -
1788406067 22.22° C 34% 1013.5 hPa 0 mm 1.34 m/s, 315° - -
1788405468 22.22° C 34% 1013.5 hPa 0 mm 2.24 m/s, 315° - -
1788404868 22.22° C 34% 1013.5 hPa 0 mm 2.24 m/s, 292° - -
1788404267 21.67° C 34% 1013.4 hPa 0 mm 0.45 m/s, 337° - -
1788403667 21.67° C 34% 1013.5 hPa 0 mm 0.45 m/s, 247° - -
1788403067 21.67° C 33% 1013.5 hPa 0 mm 0.45 m/s, 270° - -
1788402467 22.22° C 31% 1013.7 hPa 0 mm 0.89 m/s, 292° - -
1788401867 22.78° C 31% 1013.5 hPa 0 mm 2.68 m/s, 292° - -
1788401267 22.78° C 31% 1013.7 hPa 0 mm 2.68 m/s, 292° - -
1788400667 22.22° C 32% 1013.7 hPa 0 mm 2.24 m/s, 292° - -
1788400067 22.22° C 32% 1013.8 hPa 0 mm 1.79 m/s, 292° - -
1788399467 22.22° C 32% 1013.9 hPa 0 mm 2.68 m/s, 292° - -
1788398866 22.22° C 33% 1014 hPa 0 mm 2.68 m/s, 270° - -
1788398266 21.67° C 33% 1014.1 hPa 0 mm 2.24 m/s, 292° - -
1788397666 21.67° C 32% 1014.1 hPa 0 mm 2.24 m/s, 292° - -
1788397066 21.11° C 30% 1014.2 hPa 0 mm 0.89 m/s, 270° - -
1788396466 21.11° C 29% 1014.3 hPa 0 mm 0.45 m/s, 292° - -
1788395866 21.11° C 28% 1014.2 hPa 0 mm 0.89 m/s, 292° - -
1788395266 21.11° C 27% 1014.2 hPa 0 mm 0.45 m/s, 292° - -
1788394666 21.11° C 26% 1014.3 hPa 0 mm 0.45 m/s, 270° - -
1788394065 20.56° C 25% 1014.3 hPa 0 mm 0 m/s - -
1788393466 21.67° C 24% 1014.3 hPa 0 mm 0.89 m/s, 315° - -

* Rain latest hour (hover to see other rain measurements)
** Current wind speed in m/s (hover to see current wind gust speed)